Regional Weather Roundup
Issued by NWS Midland/Odessa, TX

Skip options and go directly to product.
Home | Oldest Version | Previous Version | Current Version | All | Text Only | Save Text | Print | Product List | Glossary On

Skip product version selection by date and time.   
503
ASUS44 KMAF 222001
RWRMAF
MIDLAND AREA WEATHER ROUNDUP
NATIONAL WEATHER SERVICE MIDLAND TX
200 PM CST MON DEC 22 2014

...IN SOUTHWEST TEXAS AND SOUTHEAST NEW MEXICO...

CITY           SKY/WX    TMP DP  RH WIND       PRES   REMARKS
ALPINE         PTSUNNY   65  31  27 SW17G23   29.87F
ANDREWS        FAIR      59  34  39 N6        29.74F
ARTESIA        CLOUDY    66  32  28 SW17      29.71F
BIG SPRING     CLOUDY    62  33  33 N6        29.73F
CARLSBAD       CLOUDY    67  31  26 W14       29.70F
DRYDEN           N/A     79  30  16 SW22G30   29.66F
FORT STOCKTON  PTSUNNY   74  30  19 NW21      29.72F
GUAD PASS      NOT AVBL
HOBBS          SUNNY     57  32  38 N10       29.73F
MARFA          PTSUNNY   63  30  29 W23G32    29.85F
MIDLAND AIRPK  CLOUDY    63  34  33 N8        29.72F
MIDLAND INTL   CLOUDY    64  34  32 N14       29.71F
ODESSA         CLOUDY    65  32  29 N14       29.71F
PECOS          CLOUDY    69  33  26 W23G32    29.72F
PRESIDIO       FAIR      71  31  22 W9        29.81F
SEMINOLE       CLOUDY    59  34  39 N7        29.74F
SNYDER         CLOUDY    58  35  42 NW12      29.72S
WINK           CLOUDY    72  28  19 W15G21    29.69F
$$
...OTHER STATIONS IN TEXAS...

CITY           SKY/WX    TMP DP  RH WIND       PRES   REMARKS
ABILENE        PTSUNNY   65  36  34 NW8       29.67F
AMARILLO       CLOUDY    50  21  32 N14G23    29.71F
AUSTIN         CLOUDY    66  55  67 S15       29.62F
BROWNSVILLE    SUNNY     77  63  61 S22G32    29.69F
CORPUS CHRISTI MOSUNNY   74  62  66 SW13      29.68F
DALLAS FTW     PTSUNNY   62  44  51 W15       29.56F
DEL RIO        CLOUDY    56  52  86 CALM      29.69F
EL PASO        MOSUNNY   65  33  30 W10G23    29.81F
HOUSTON INT    CLOUDY    71  59  65 SW12G20   29.63F
LUBBOCK        PTSUNNY   57  31  37 N7        29.70F
SAN ANGELO     MOSUNNY   73  33  23 NW20      29.66F
SAN ANTONIO    PTSUNNY   70  53  54 SW12      29.66F
WACO           MOSUNNY   71  39  31 W12       29.58F
WICHITA FALLS  NOT AVBL
$$
...OTHER LOCATIONS IN NEW MEXICO...

CITY           SKY/WX    TMP DP  RH WIND       PRES   REMARKS
ALAMAGORDO     SUNNY     63  36  36 SE3       29.81F
ALBUQUERQUE    PTSUNNY   59  29  31 W24G31    29.75F
CANNON AFB     PTSUNNY   49  25  38 E8        29.71F
CLOVIS         CLOUDY    48  25  40 NE9       29.72F
HOLLOMAN AFB   SUNNY     64  33  30 SW8       29.78F
ROSWELL        PTSUNNY   70  28  21 NW24G32   29.67F
RUIDOSO        MOSUNNY   55  27  33 NW15G22   29.82F
SANTA FE       MOSUNNY   51  29  42 W25G38    29.70F
TRUTH OR CONSE SUNNY     64  31  28 SW7       29.80F
TUCUMCARI      CLOUDY    50  23  34 E13       29.69F
$$

USA.gov is the U.S. government's official web portal to all federal, state and local government web resources and services.